Location: La Trinit�
(48.1620°N, 3.4512°W)
Time: 08:42:28
(UTC+00:00)

NOSS 3-4 (C) - Pass Details

Date: 08 May 2021
Orbit: 873 x 1339 km, 63.4° (Epoch: 06 May)

Event Time Altitude Azimuth Distance (km) Brightness Sun altitude
Rises 23:23:18 0° 316° (NW) 3,835 7.5 -23.6°
Reaches altitude 10° 23:25:54 10° 311° (NW) 2,943 6.7 -23.7°
Maximum altitude 23:32:36 48° 240° (WSW) 1,503 4.3 -23.9°
Enters shadow 23:34:34 40° 201° (SSW) 1,710 4.3 -24.0°
